This is the latest recevied weather packets stored in our database for station/object KC8JWT. If no packets are shown the sender has not sent any weather packets the latest 10 day(s).
| Time | Temp. | Humidity | Pressure | Rain* | Wind** | Luminosity | Snow |
|---|---|---|---|---|---|---|---|
| 1778019771 | 22.78° C | 58% | 1008.3 hPa | 0 mm | - | 74 W/m² | - |
| 1778019468 | 22.78° C | 58% | 1008.4 hPa | 0 mm | - | 72 W/m² | - |
| 1778019165 | 22.78° C | 57% | 1008.3 hPa | 0 mm | - | 76 W/m² | - |
| 1778018862 | 22.78° C | 57% | 1008.4 hPa | 0 mm | - | 95 W/m² | - |
| 1778018559 | 23.33° C | 57% | 1008.8 hPa | 0 mm | - | 119 W/m² | - |
| 1778018257 | 23.33° C | 56% | 1008.4 hPa | 0 mm | - | 140 W/m² | - |
| 1778017955 | 23.33° C | 56% | 1008.4 hPa | 0 mm | - | 163 W/m² | - |
| 1778017653 | 23.33° C | 55% | 1008.4 hPa | 0 mm | - | 124 W/m² | - |
| 1778016440 | 23.89° C | 55% | 1008.7 hPa | 0 mm | - | 277 W/m² | - |
| 1778016138 | 23.89° C | 55% | 1008.7 hPa | 0 mm | - | 277 W/m² | - |
| 1778015834 | 23.89° C | 54% | 1008.8 hPa | 0 mm | - | 287 W/m² | - |
| 1778015532 | 23.89° C | 55% | 1008.7 hPa | 0 mm | - | 186 W/m² | - |
| 1778015228 | 23.33° C | 55% | 1008.9 hPa | 0 mm | - | 181 W/m² | - |
| 1778014925 | 23.89° C | 55% | 1009.2 hPa | 0 mm | - | 214 W/m² | - |
| 1778014622 | 23.89° C | 54% | 1008.8 hPa | 0 mm | - | 240 W/m² | - |
| 1778014320 | 24.44° C | 53% | 1008.9 hPa | 0 mm | - | 249 W/m² | - |
| 1778014017 | 24.44° C | 53% | 1009 hPa | 0 mm | - | 286 W/m² | - |
| 1778013715 | 24.44° C | 53% | 1008.8 hPa | 0 mm | - | 313 W/m² | - |
| 1778013412 | 24.44° C | 53% | 1009 hPa | 0 mm | - | 330 W/m² | - |
| 1778013108 | 24.44° C | 53% | 1009 hPa | 0 mm | - | 335 W/m² | - |
| 1778012804 | 24.44° C | 54% | 1008.9 hPa | 0 mm | - | 298 W/m² | - |
| 1778012500 | 24.44° C | 53% | 1009 hPa | 0 mm | - | 315 W/m² | - |
| 1778012197 | 24.44° C | 54% | 1009.1 hPa | 0 mm | - | 340 W/m² | - |
| 1778011895 | 24.44° C | 54% | 1009.1 hPa | 0 mm | - | 354 W/m² | - |
| 1778011593 | 24.44° C | 53% | 1009.3 hPa | 0 mm | - | 392 W/m² | - |
* Rain latest hour (hover to see other rain measurements)
** Current wind speed in m/s (hover to see current wind gust speed)